CW1138 Weather Reports


Display with metric or nautical units.
time (UTC)temp
F
wind
direction
speed
MPH
gust
MPH
rain 1hr
in
rain 24hr
in
rain mn
in
humidity
%
barometer
mb
20180817105528 64 58 0.0 0.0 0.00 0.00 0.00 61 1015.1
20180817104527 65 58 0.0 0.0 0.00 0.00 0.00 61 1015.0
20180817104027 65 58 0.0 0.0 0.00 0.00 0.00 61 1015.0
20180817103527 65 58 1.0 3.0 0.00 0.00 0.00 60 1015.0
20180817103027 65 55 0.0 0.0 0.00 0.00 0.00 60 1015.2
20180817102527 66 55 0.0 0.0 0.00 0.00 0.00 59 1015.2
20180817102027 66 55 0.0 0.0 0.00 0.00 0.00 58 1015.2
20180817101527 66 54 2.0 2.0 0.00 0.00 0.00 57 1015.3
20180817095026 64 55 4.0 4.0 0.00 0.00 0.00 61 1015.0
20180817094526 64 71 0.0 0.0 0.00 0.00 0.00 62 1015.1
20180817094027 64 72 0.0 0.0 0.00 0.00 0.00 63 1015.1
20180817093526 64 72 0.0 0.0 0.00 0.00 0.00 63 1015.1
20180817093026 64 72 0.0 0.0 0.00 0.00 0.00 64 1015.1
20180817092026 64 72 0.0 0.0 0.00 0.00 0.00 62 1015.1
20180817091526 64 72 0.0 0.0 0.00 0.00 0.00 61 1015.2
20180817091026 65 72 0.0 0.0 0.00 0.00 0.00 61 1015.2
20180817083025 67 72 0.0 0.0 0.00 0.00 0.00 55 1015.0
20180817082525 67 72 0.0 0.0 0.00 0.00 0.00 56 1015.0
20180817082025 67 72 0.0 0.0 0.00 0.00 0.00 56 1015.0
20180817081525 67 72 0.0 0.0 0.00 0.00 0.00 56 1014.8
20180817075025 67 48 0.0 0.0 0.00 0.00 0.00 57 1014.9
20180817074525 67 48 0.0 0.0 0.00 0.00 0.00 56 1014.8
20180817074024 67 48 0.0 0.0 0.00 0.00 0.00 55 1014.8
20180817073524 67 48 0.0 0.0 0.00 0.00 0.00 55 1014.8
20180817073024 67 48 0.0 0.0 0.00 0.00 0.00 55 1014.8
20180817072524 67 48 0.0 0.0 0.00 0.00 0.00 55 1014.8
20180817072024 67 48 0.0 0.0 0.00 0.00 0.00 55 1014.8
20180817070524 67 48 0.0 0.0 0.00 0.00 0.00 55 1014.8
20180817065024 67 48 0.0 0.0 0.00 0.00 0.00 56 1014.8
20180817064524 67 48 0.0 0.0 0.00 0.00 0.00 56 1014.7
20180817064023 67 48 0.0 0.0 0.00 0.00 0.00 55 1014.7
20180817062524 67 48 0.0 0.0 0.00 0.00 0.00 56 1014.8
20180817055023 68 48 0.0 0.0 0.00 0.00 0.00 55 1014.6
20180817053523 68 48 0.0 0.0 0.00 0.00 0.00 53 1014.6
20180817053022 69 48 0.0 0.0 0.00 0.00 0.00 52 1014.5
20180817052523 69 48 0.0 0.0 0.00 0.00 0.00 51 1014.5
20180817052023 69 48 0.0 0.0 0.00 0.00 0.00 51 1014.5
20180817051522 69 48 0.0 0.0 0.00 0.00 0.00 50 1014.4
20180817050522 69 48 0.0 0.0 0.00 0.00 0.00 49 1014.4
20180817050022 69 48 0.0 0.0 0.00 0.00 0.00 51 1014.4
20180817044522 71 48 0.0 0.0 0.00 0.00 0.00 49 1014.3
20180817043522 71 48 0.0 0.0 0.00 0.00 0.00 47 1014.3
20180817042522 72 48 0.0 0.0 0.00 0.00 0.00 46 1014.3
20180817042022 72 48 0.0 0.0 0.00 0.00 0.00 44 1014.3
20180817041521 73 48 0.0 0.0 0.00 0.00 0.00 44 1014.3
20180817041021 73 48 0.0 0.0 0.00 0.00 0.00 43 1014.3
20180817040022 74 48 0.0 0.0 0.00 0.00 0.00 41 1014.2
20180817035521 75 48 0.0 0.0 0.00 0.00 0.00 41 1014.2
20180817034021 76 48 0.0 0.0 0.00 0.00 0.00 39 1014.0
20180817033521 77 48 0.0 0.0 0.00 0.00 0.00 39 1014.0
20180817033021 78 48 0.0 0.0 0.00 0.00 0.00 36 1013.9
20180817032021 79 48 0.0 0.0 0.00 0.00 0.00 34 1013.9
20180817031521 79 48 0.0 0.0 0.00 0.00 0.00 32 1013.8
20180817031021 80 48 0.0 0.0 0.00 0.00 0.00 32 1013.8
20180817030020 81 48 0.0 0.0 0.00 0.00 0.00 32 1013.8
20180817025020 82 48 0.0 0.0 0.00 0.00 0.00 29 1013.8
20180817023520 83 48 0.0 0.0 0.00 0.00 0.00 27 1013.7
20180817023020 83 48 0.0 0.0 0.00 0.00 0.00 28 1013.6
20180817022020 85 48 0.0 0.0 0.00 0.00 0.00 28 1013.6
20180817021019 86 48 0.0 0.0 0.00 0.00 0.00 27 1013.6
20180817020019 86 48 0.0 0.0 0.00 0.00 0.00 26 1013.6
20180817015019 88 48 0.0 0.0 0.00 0.00 0.00 25 1013.6
20180817012519 90 48 0.0 0.0 0.00 0.00 0.00 23 1013.6
20180817011519 91 55 0.0 0.0 0.00 0.00 0.00 22 1013.7
20180817011019 92 55 0.0 0.0 0.00 0.00 0.00 22 1013.7
20180817010019 92 55 0.0 0.0 0.00 0.00 0.00 20 1013.7
20180817005519 92 55 0.0 0.0 0.00 0.00 0.00 21 1013.7
20180817004018 93 58 0.0 1.0 0.00 0.00 0.00 20 1013.7
20180817002518 95 47 0.0 1.0 0.00 0.00 0.00 18 1013.7
20180817000517 96 69 0.0 0.0 0.00 0.00 0.00 18 1013.8
20180816235517 97 69 0.0 0.0 0.00 0.00 0.00 19 1013.8
20180816233517 97 78 0.0 0.0 0.00 0.00 0.00 17 1014.0
20180816233017 97 78 0.0 0.0 0.00 0.00 0.00 17 1014.2
20180816232017 98 171 0.0 0.0 0.00 0.00 0.00 17 1014.2
20180816231517 98 171 0.0 0.0 0.00 0.00 0.00 18 1014.3
20180816230016 97 322 0.0 1.0 0.00 0.00 0.00 21 1014.4
20180816225516 97 322 0.0 0.0 0.00 0.00 0.00 18 1014.4
20180816225017 98 302 0.0 0.0 0.00 0.00 0.00 16 1014.4
20180816223016 98 305 0.0 0.0 0.00 0.00 0.00 19 1014.7
20180816222016 97 305 0.0 0.0 0.00 0.00 0.00 17 1014.7
20180816221516 97 151 0.0 0.0 0.00 0.00 0.00 19 1014.8
20180816221016 97 147 0.0 0.0 0.00 0.00 0.00 18 1014.8
20180816220516 97 147 0.0 0.0 0.00 0.00 0.00 17 1014.8
20180816220016 97 147 0.0 0.0 0.00 0.00 0.00 17 1014.8
20180816215016 97 140 0.0 0.0 0.00 0.00 0.00 16 1014.8
20180816214515 96 51 0.0 0.0 0.00 0.00 0.00 17 1014.9
20180816213515 96 48 0.0 0.0 0.00 0.00 0.00 16 1014.9
20180816213015 95 48 0.0 0.0 0.00 0.00 0.00 26 1015.0
20180816212515 95 48 0.0 0.0 0.00 0.00 0.00 18 1015.0
20180816212015 94 48 0.0 0.0 0.00 0.00 0.00 22 1015.0
20180816211515 94 54 0.0 0.0 0.00 0.00 0.00 17 1015.1
20180816210515 93 54 0.0 0.0 0.00 0.00 0.00 20 1015.1
20180816210015 93 54 0.0 0.0 0.00 0.00 0.00 18 1015.1
20180816205014 92 54 0.0 0.0 0.00 0.00 0.00 18 1015.1
20180816204514 92 54 0.0 0.0 0.00 0.00 0.00 19 1015.3
20180816204014 91 54 0.0 0.0 0.00 0.00 0.00 19 1015.3
20180816203014 90 55 2.0 2.0 0.00 0.00 0.00 23 1015.3
20180816202514 89 55 0.0 0.0 0.00 0.00 0.00 21 1015.3
20180816202014 89 69 0.0 0.0 0.00 0.00 0.00 22 1015.3
20180816201014 88 71 0.0 1.0 0.00 0.00 0.00 25 1015.4
20180816200014 88 69 2.0 2.0 0.00 0.00 0.00 25 1015.4
20180816195514 88 51 1.0 1.0 0.00 0.00 0.00 25 1015.4
20180816195014 87 75 3.0 3.0 0.00 0.00 0.00 24 1015.4
20180816194514 86 55 1.0 3.0 0.00 0.00 0.00 24 1015.5
20180816194013 86 58 1.0 4.0 0.00 0.00 0.00 25 1015.5
20180816193013 85 78 0.0 1.0 0.00 0.00 0.00 27 1015.5
20180816192514 84 55 4.0 4.0 0.00 0.00 0.00 26 1015.5
20180816191014 83 55 3.0 3.0 0.00 0.00 0.00 29 1015.6
20180816190514 83 34 3.0 4.0 0.00 0.00 0.00 28 1015.6
20180816185513 82 65 2.0 4.0 0.00 0.00 0.00 27 1015.8
20180816185013 81 40 2.0 4.0 0.00 0.00 0.00 32 1015.8
20180816184512 81 54 3.0 5.0 0.00 0.00 0.00 31 1015.8
20180816183512 79 44 3.0 4.0 0.00 0.00 0.00 34 1015.8
20180816175512 77 48 0.0 3.0 0.00 0.00 0.00 36 1015.8
20180816175012 77 51 3.0 5.0 0.00 0.00 0.00 39 1015.8
20180816174512 76 55 2.0 3.0 0.00 0.00 0.00 37 1016.1
20180816174012 76 58 2.0 4.0 0.00 0.00 0.00 41 1016.1
20180816173511 76 51 0.0 0.0 0.00 0.00 0.00 41 1016.1
20180816172011 74 58 3.0 3.0 0.00 0.00 0.00 44 1016.1
20180816171511 74 37 2.0 5.0 0.00 0.00 0.00 43 1016.0
20180816171011 74 65 2.0 3.0 0.00 0.00 0.00 43 1016.0
20180816165511 73 40 4.0 4.0 0.00 0.00 0.00 43 1015.9
20180816165011 73 58 4.0 4.0 0.00 0.00 0.00 47 1015.9
20180816164511 73 44 4.0 4.0 0.00 0.00 0.00 47 1016.0
20180816163510 72 47 1.0 2.0 0.00 0.00 0.00 47 1016.0
20180816162010 72 41 5.0 5.0 0.00 0.00 0.00 47 1015.9
20180816161510 72 48 3.0 3.0 0.00 0.00 0.00 48 1015.9
20180816161010 72 40 3.0 3.0 0.00 0.00 0.00 48 1015.9
20180816160510 71 41 4.0 6.0 0.00 0.00 0.00 49 1015.9
20180816160010 70 47 0.0 0.0 0.00 0.00 0.00 51 1015.8
20180816155510 70 51 2.0 3.0 0.00 0.00 0.00 52 1015.8
20180816154510 68 58 4.0 4.0 0.00 0.00 0.00 54 1015.8
20180816154010 68 51 2.0 3.0 0.00 0.00 0.00 54 1015.8
20180816153009 66 58 0.0 0.0 0.00 0.00 0.00 57 1015.8
20180816151509 65 58 0.0 0.0 0.00 0.00 0.00 56 1015.6
20180816151009 65 61 3.0 3.0 0.00 0.00 0.00 56 1015.6
20180816145509 64 62 2.0 2.0 0.00 0.00 0.00 57 1015.6
20180816144009 64 64 3.0 3.0 0.00 0.00 0.00 58 1015.3
20180816143509 64 58 0.0 0.0 0.00 0.00 0.00 59 1015.3
20180816143009 64 58 0.0 0.0 0.00 0.00 0.00 58 1015.1
20180816142509 63 58 2.0 3.0 0.00 0.00 0.00 57 1015.1
20180816141508 62 58 3.0 3.0 0.00 0.00 0.00 59 1015.1
20180816140508 60 44 3.0 4.0 0.00 0.00 0.00 64 1015.1
20180816140008 59 58 0.0 0.0 0.00 0.00 0.00 70 1015.0
20180816135008 58 71 0.0 0.0 0.00 0.00 0.00 70 1015.0
20180816134508 58 71 0.0 0.0 0.00 0.00 0.00 68 1014.8
20180816132508 58 71 0.0 0.0 0.00 0.00 0.00 68 1014.7
20180816131007 58 71 0.0 0.0 0.00 0.00 0.00 64 1014.5
20180816130008 59 71 0.0 0.0 0.00 0.00 0.00 64 1014.4
20180816125007 59 71 0.0 0.0 0.00 0.00 0.00 62 1014.4
20180816124507 60 71 0.0 0.0 0.00 0.00 0.00 61 1014.3
20180816123507 60 71 2.0 2.0 0.00 0.00 0.00 57 1014.3
20180816122507 60 58 3.0 4.0 0.00 0.00 0.00 56 1014.3
20180816121506 60 58 2.0 3.0 0.00 0.00 0.00 59 1014.2
20180816121007 59 62 2.0 3.0 0.00 0.00 0.00 62 1014.2
20180816120506 59 58 4.0 4.0 0.00 0.00 0.00 62 1014.2
20180816115506 59 61 3.0 3.0 0.00 0.00 0.00 61 1014.1
20180816114506 59 61 0.0 0.0 0.00 0.00 0.00 62 1014.1
20180816114006 59 61 0.0 0.0 0.00 0.00 0.00 61 1014.1
20180816113506 59 61 0.0 0.0 0.00 0.00 0.00 61 1014.1
20180816113006 59 61 1.0 2.0 0.00 0.00 0.00 60 1014.0
20180816112006 58 75 1.0 2.0 0.00 0.00 0.00 60 1014.0
20180816111506 58 75 2.0 2.0 0.00 0.00 0.00 60 1013.8
20180816111005 59 75 2.0 2.0 0.00 0.00 0.00 61 1013.8
20180816110005 59 75 2.0 3.0 0.00 0.00 0.00 60 1013.8